PAS602 WIII-WALL

Flight info

Callsign PAS602
Flight time 1h 48m
Altitude 35000
Route EGUKO T9 SILJA
Aircraft A320/M-SDE3FGHIRWY/LB1

Departure

Time 2026-04-21 12:09
Airport Soekarno-Hatta International Airport (WIII)

Arrival

Time 2026-04-21 13:57
Airport Sultan Aji Muhammad Sulaiman Sepinggan International Airport (WALL)
Time Latitude Longitude Altitude Speed Heading
2026-04-21 11:48 -6.11740 106.66537 47 ft 0 kts 158°
2026-04-21 11:52 -6.11731 106.66533 47 ft 2 kts 158°
2026-04-21 11:52 -6.11720 106.66528 47 ft 2 kts 158°
2026-04-21 11:52 -6.11706 106.66523 47 ft 2 kts 158°
2026-04-21 11:53 -6.11694 106.66518 47 ft 2 kts 158°
2026-04-21 11:53 -6.11680 106.66512 47 ft 2 kts 158°
2026-04-21 11:53 -6.11664 106.66506 47 ft 2 kts 158°
2026-04-21 11:53 -6.11648 106.66502 47 ft 2 kts 186°
2026-04-21 11:54 -6.11636 106.66505 47 ft 2 kts 208°
2026-04-21 11:54 -6.11627 106.66512 47 ft 2 kts 231°
2026-04-21 11:54 -6.11623 106.66518 47 ft 0 kts 246°
2026-04-21 11:54 -6.11621 106.66524 47 ft 0 kts 249°
2026-04-21 12:03 -6.11622 106.66521 47 ft 1 kts 249°
2026-04-21 12:04 -6.11625 106.66512 47 ft 2 kts 249°
2026-04-21 12:04 -6.11632 106.66496 47 ft 5 kts 248°
2026-04-21 12:04 -6.11644 106.66465 47 ft 6 kts 252°
2026-04-21 12:04 -6.11638 106.66415 47 ft 7 kts 306°
2026-04-21 12:05 -6.11568 106.66377 47 ft 9 kts 338°
2026-04-21 12:05 -6.11468 106.66338 47 ft 9 kts 338°
2026-04-21 12:05 -6.11360 106.66303 47 ft 8 kts
2026-04-21 12:05 -6.11298 106.66389 47 ft 10 kts 68°
2026-04-21 12:06 -6.11248 106.66512 47 ft 12 kts 67°
2026-04-21 12:06 -6.11194 106.66644 47 ft 12 kts 71°
2026-04-21 12:06 -6.11160 106.66737 47 ft 10 kts 68°
2026-04-21 12:06 -6.11130 106.66811 47 ft 11 kts 68°
2026-04-21 12:07 -6.11099 106.66889 47 ft 12 kts 69°
2026-04-21 12:07 -6.11054 106.66958 47 ft 10 kts 37°
2026-04-21 12:07 -6.10983 106.66966 47 ft 11 kts 333°
2026-04-21 12:07 -6.10934 106.66904 47 ft 10 kts 301°
2026-04-21 12:08 -6.10915 106.66856 47 ft 7 kts 258°
2026-04-21 12:08 -6.10927 106.66827 47 ft 0 kts 248°
2026-04-21 12:08 -6.10928 106.66823 47 ft 4 kts 248°
2026-04-21 12:08 -6.11027 106.66576 47 ft 72 kts 249°
2026-04-21 12:09 -6.11294 106.65907 47 ft 132 kts 248°
2026-04-21 12:09 -6.11704 106.64881 97 ft 175 kts 250°
2026-04-21 12:09 -6.12154 106.63750 622 ft 176 kts 249°
2026-04-21 12:09 -6.12617 106.62624 1252 ft 175 kts 252°
2026-04-21 12:10 -6.12695 106.61456 1743 ft 170 kts 289°
2026-04-21 12:10 -6.12145 106.60419 2128 ft 170 kts 296°
2026-04-21 12:10 -6.11735 106.59305 2522 ft 170 kts 291°
2026-04-21 12:10 -6.11306 106.58189 2909 ft 171 kts 290°
2026-04-21 12:11 -6.10907 106.57056 3259 ft 176 kts 290°
2026-04-21 12:11 -6.10485 106.55854 3509 ft 189 kts 290°
2026-04-21 12:11 -6.10047 106.54573 3786 ft 201 kts 290°
2026-04-21 12:11 -6.09575 106.53195 4059 ft 215 kts 291°
2026-04-21 12:12 -6.09046 106.51726 4304 ft 230 kts 296°
2026-04-21 12:12 -6.08025 106.50413 4456 ft 249 kts 327°
2026-04-21 12:12 -6.06394 106.49736 4773 ft 262 kts 353°
2026-04-21 12:12 -6.04561 106.49895 5134 ft 273 kts 20°
2026-04-21 12:13 -6.02814 106.50656 5781 ft 275 kts 27°
2026-04-21 12:13 -6.01316 106.51837 6346 ft 279 kts 54°
2026-04-21 12:13 -6.00323 106.53513 6940 ft 280 kts 61°
2026-04-21 12:13 -5.99372 106.55237 7533 ft 284 kts 61°
2026-04-21 12:14 -5.98402 106.56973 8219 ft 287 kts 61°
2026-04-21 12:14 -5.97419 106.58727 9013 ft 290 kts 60°
2026-04-21 12:14 -5.96429 106.60490 9891 ft 291 kts 60°
2026-04-21 12:14 -5.95432 106.62264 10632 ft 294 kts 60°
2026-04-21 12:15 -5.94412 106.64074 10857 ft 310 kts 60°
2026-04-21 12:15 -5.93322 106.66009 11019 ft 326 kts 60°
2026-04-21 12:15 -5.92170 106.68049 11269 ft 336 kts 60°
2026-04-21 12:15 -5.91017 106.70090 11663 ft 338 kts 60°
2026-04-21 12:16 -5.89857 106.72144 12124 ft 340 kts 61°
2026-04-21 12:16 -5.88690 106.74216 12645 ft 342 kts 61°
2026-04-21 12:16 -5.87512 106.76306 13230 ft 342 kts 61°
2026-04-21 12:16 -5.86341 106.78385 13852 ft 342 kts 61°
2026-04-21 12:17 -5.85168 106.80466 14409 ft 342 kts 61°
2026-04-21 12:17 -5.83999 106.82539 14885 ft 346 kts 61°
2026-04-21 12:17 -5.82800 106.84665 15356 ft 348 kts 61°
2026-04-21 12:17 -5.81603 106.86787 15798 ft 351 kts 61°
2026-04-21 12:18 -5.80396 106.88927 16229 ft 354 kts 61°
2026-04-21 12:18 -5.79185 106.91073 16660 ft 357 kts 61°
2026-04-21 12:18 -5.77967 106.93232 17068 ft 358 kts 61°
2026-04-21 12:18 -5.76722 106.95438 17470 ft 360 kts 61°
2026-04-21 12:19 -5.75500 106.97606 17840 ft 363 kts 61°
2026-04-21 12:19 -5.74250 106.99819 18214 ft 366 kts 61°
2026-04-21 12:19 -5.72984 107.02063 18593 ft 368 kts 61°
2026-04-21 12:19 -5.71723 107.04295 18946 ft 371 kts 61°
2026-04-21 12:20 -5.70440 107.06564 19300 ft 373 kts 61°
2026-04-21 12:20 -5.69156 107.08835 19651 ft 375 kts 60°
2026-04-21 12:20 -5.67865 107.11119 19982 ft 378 kts 61°
2026-04-21 12:20 -5.66566 107.13416 20316 ft 380 kts 61°
2026-04-21 12:21 -5.65260 107.15727 20651 ft 382 kts 61°
2026-04-21 12:21 -5.63947 107.18049 20964 ft 384 kts 61°
2026-04-21 12:21 -5.62619 107.20399 21283 ft 387 kts 61°
2026-04-21 12:21 -5.61291 107.22750 21605 ft 389 kts 61°
2026-04-21 12:22 -5.59956 107.25115 21929 ft 391 kts 61°
2026-04-21 12:22 -5.58616 107.27489 22241 ft 393 kts 61°
2026-04-21 12:22 -5.57272 107.29866 22544 ft 395 kts 61°
2026-04-21 12:22 -5.55917 107.32264 22859 ft 396 kts 60°
2026-04-21 12:23 -5.54558 107.34667 23165 ft 398 kts 60°
2026-04-21 12:23 -5.53180 107.37105 23470 ft 400 kts 60°
2026-04-21 12:23 -5.51807 107.39531 23762 ft 403 kts 60°
2026-04-21 12:23 -5.50421 107.41980 24051 ft 405 kts 60°
2026-04-21 12:24 -5.49029 107.44441 24334 ft 407 kts 60°
2026-04-21 12:24 -5.47628 107.46915 24625 ft 408 kts 60°
2026-04-21 12:24 -5.46226 107.49391 24909 ft 410 kts 60°
2026-04-21 12:24 -5.44815 107.51884 25175 ft 412 kts 60°
2026-04-21 12:25 -5.43400 107.54384 25449 ft 413 kts 60°
2026-04-21 12:25 -5.41978 107.56895 25715 ft 415 kts 60°
2026-04-21 12:25 -5.40556 107.59407 25980 ft 417 kts 60°
2026-04-21 12:25 -5.39107 107.61967 26246 ft 418 kts 60°
2026-04-21 12:26 -5.37676 107.64494 26499 ft 419 kts 60°
2026-04-21 12:26 -5.36226 107.67052 26742 ft 421 kts 60°
2026-04-21 12:26 -5.34776 107.69613 26993 ft 423 kts 60°
2026-04-21 12:26 -5.33337 107.72153 27232 ft 424 kts 60°
2026-04-21 12:27 -5.31879 107.74725 27474 ft 426 kts 60°
2026-04-21 12:27 -5.30398 107.77339 27706 ft 428 kts 60°
2026-04-21 12:27 -5.28932 107.79926 27955 ft 429 kts 60°
2026-04-21 12:27 -5.27455 107.82530 28177 ft 430 kts 60°
2026-04-21 12:28 -5.25978 107.85137 28409 ft 432 kts 60°
2026-04-21 12:28 -5.24498 107.87748 28643 ft 433 kts 60°
2026-04-21 12:28 -5.23012 107.90371 28873 ft 434 kts 60°
2026-04-21 12:28 -5.21525 107.92993 29097 ft 436 kts 60°
2026-04-21 12:29 -5.20012 107.95661 29317 ft 437 kts 60°
2026-04-21 12:29 -5.18518 107.98295 29519 ft 439 kts 60°
2026-04-21 12:29 -5.16997 108.00975 29740 ft 440 kts 60°
2026-04-21 12:29 -5.15495 108.03622 29949 ft 442 kts 60°
2026-04-21 12:30 -5.13968 108.06313 30154 ft 443 kts 60°
2026-04-21 12:30 -5.12440 108.09004 30363 ft 444 kts 60°
2026-04-21 12:30 -5.10904 108.11710 30555 ft 446 kts 60°
2026-04-21 12:30 -5.09378 108.14397 30739 ft 448 kts 60°
2026-04-21 12:31 -5.07835 108.17116 30934 ft 449 kts 60°
2026-04-21 12:31 -5.06292 108.19835 31122 ft 450 kts 60°
2026-04-21 12:31 -5.04740 108.22570 31300 ft 452 kts 60°
2026-04-21 12:31 -5.03188 108.25303 31471 ft 453 kts 60°
2026-04-21 12:32 -5.01635 108.28038 31682 ft 453 kts 60°
2026-04-21 12:32 -5.00069 108.30794 31951 ft 452 kts 60°
2026-04-21 12:32 -4.98506 108.33545 32232 ft 451 kts 60°
2026-04-21 12:32 -4.96977 108.36236 32506 ft 449 kts 60°
2026-04-21 12:33 -4.95432 108.38955 32791 ft 448 kts 60°
2026-04-21 12:33 -4.93891 108.41666 33043 ft 448 kts 60°
2026-04-21 12:33 -4.92342 108.44392 33248 ft 448 kts 60°
2026-04-21 12:33 -4.90813 108.47081 33415 ft 449 kts 60°
2026-04-21 12:34 -4.89255 108.49824 33605 ft 450 kts 60°
2026-04-21 12:34 -4.87687 108.52581 33821 ft 451 kts 60°
2026-04-21 12:34 -4.86149 108.55287 34040 ft 451 kts 60°
2026-04-21 12:34 -4.84595 108.58021 34255 ft 451 kts 60°
2026-04-21 12:35 -4.83047 108.60741 34442 ft 452 kts 60°
2026-04-21 12:35 -4.81494 108.63474 34605 ft 452 kts 60°
2026-04-21 12:35 -4.79923 108.66236 34730 ft 454 kts 60°
2026-04-21 12:36 -4.76788 108.71744 34810 ft 455 kts 59°
2026-04-21 12:36 -4.73673 108.77216 34811 ft 454 kts 60°
2026-04-21 12:37 -4.70629 108.82786 34811 ft 455 kts 63°
2026-04-21 12:37 -4.67903 108.88487 34812 ft 455 kts 64°
2026-04-21 12:38 -4.65193 108.94198 34813 ft 454 kts 64°
2026-04-21 12:38 -4.62470 108.99927 34812 ft 454 kts 64°
2026-04-21 12:39 -4.59766 109.05613 34812 ft 454 kts 64°
2026-04-21 12:39 -4.57037 109.11345 34812 ft 455 kts 64°
2026-04-21 12:40 -4.54332 109.17025 34813 ft 455 kts 64°
2026-04-21 12:40 -4.51607 109.22746 34819 ft 454 kts 64°
2026-04-21 12:41 -4.48882 109.28468 34828 ft 454 kts 64°
2026-04-21 12:41 -4.46183 109.34137 34831 ft 453 kts 64°
2026-04-21 12:42 -4.43470 109.39832 34830 ft 454 kts 64°
2026-04-21 12:42 -4.40747 109.45548 34833 ft 454 kts 64°
2026-04-21 12:43 -4.38032 109.51241 34831 ft 454 kts 64°
2026-04-21 12:43 -4.35309 109.56954 34832 ft 453 kts 64°
2026-04-21 12:44 -4.32599 109.62639 34831 ft 453 kts 64°
2026-04-21 12:44 -4.29882 109.68336 34831 ft 453 kts 64°
2026-04-21 12:45 -4.27167 109.74025 34829 ft 454 kts 64°
2026-04-21 12:45 -4.24456 109.79704 34832 ft 454 kts 64°
2026-04-21 12:46 -4.21737 109.85400 34831 ft 454 kts 64°
2026-04-21 12:46 -4.19011 109.91110 34830 ft 454 kts 64°
2026-04-21 12:47 -4.16297 109.96796 34831 ft 453 kts 64°
2026-04-21 12:47 -4.13572 110.02501 34831 ft 454 kts 64°
2026-04-21 12:48 -4.10850 110.08201 34831 ft 454 kts 64°
2026-04-21 12:48 -4.08139 110.13874 34833 ft 454 kts 64°
2026-04-21 12:49 -4.05420 110.19563 34831 ft 453 kts 64°
2026-04-21 12:49 -4.02702 110.25248 34832 ft 453 kts 65°
2026-04-21 12:50 -3.99989 110.30926 34831 ft 453 kts 65°
2026-04-21 12:50 -3.97268 110.36616 34832 ft 453 kts 65°
2026-04-21 12:51 -3.94542 110.42308 34832 ft 453 kts 64°
2026-04-21 12:51 -3.91818 110.47993 34827 ft 453 kts 64°
2026-04-21 12:52 -3.89105 110.53657 34822 ft 452 kts 65°
2026-04-21 12:52 -3.86375 110.59360 34818 ft 452 kts 65°
2026-04-21 12:53 -3.83661 110.65026 34816 ft 452 kts 64°
2026-04-21 12:53 -3.80936 110.70717 34822 ft 452 kts 65°
2026-04-21 12:54 -3.78220 110.76385 34829 ft 452 kts 65°
2026-04-21 12:54 -3.75513 110.82034 34831 ft 451 kts 65°
2026-04-21 12:55 -3.72805 110.87686 34832 ft 451 kts 65°
2026-04-21 12:55 -3.70100 110.93332 34833 ft 452 kts 64°
2026-04-21 12:56 -3.67374 110.99017 34832 ft 451 kts 65°
2026-04-21 12:56 -3.64664 111.04666 34831 ft 452 kts 64°
2026-04-21 12:57 -3.61936 111.10356 34832 ft 452 kts 65°
2026-04-21 12:57 -3.59225 111.16009 34831 ft 452 kts 65°
2026-04-21 12:58 -3.56524 111.21641 34832 ft 451 kts 65°
2026-04-21 12:58 -3.53809 111.27301 34832 ft 451 kts 65°
2026-04-21 12:59 -3.51091 111.32965 34831 ft 450 kts 65°
2026-04-21 12:59 -3.48391 111.38590 34831 ft 451 kts 65°
2026-04-21 13:00 -3.45662 111.44270 34832 ft 450 kts 65°
2026-04-21 13:00 -3.42966 111.49884 34832 ft 450 kts 65°
2026-04-21 13:01 -3.40262 111.55513 34832 ft 450 kts 65°
2026-04-21 13:01 -3.37537 111.61186 34831 ft 450 kts 65°
2026-04-21 13:02 -3.34830 111.66821 34832 ft 450 kts 64°
2026-04-21 13:02 -3.30768 111.75273 34831 ft 450 kts 64°
2026-04-21 13:03 -3.28046 111.80936 34832 ft 450 kts 64°
2026-04-21 13:03 -3.25330 111.86586 34832 ft 450 kts 64°
2026-04-21 13:04 -3.22632 111.92194 34833 ft 450 kts 64°
2026-04-21 13:04 -3.19924 111.97825 34834 ft 450 kts 65°
2026-04-21 13:05 -3.17211 112.03467 34841 ft 449 kts 64°
2026-04-21 13:05 -3.14498 112.09111 34849 ft 449 kts 64°
2026-04-21 13:06 -3.11807 112.14703 34853 ft 449 kts 64°
2026-04-21 13:06 -3.09093 112.20343 34852 ft 450 kts 64°
2026-04-21 13:07 -3.06388 112.25964 34851 ft 450 kts 64°
2026-04-21 13:07 -3.03729 112.31666 34848 ft 451 kts 68°
2026-04-21 13:08 -3.01412 112.37462 34847 ft 451 kts 69°
2026-04-21 13:08 -2.99114 112.43285 34840 ft 451 kts 69°
2026-04-21 13:09 -2.96809 112.49124 34838 ft 451 kts 69°
2026-04-21 13:09 -2.94512 112.54936 34838 ft 451 kts 69°
2026-04-21 13:10 -2.92208 112.60759 34839 ft 452 kts 69°
2026-04-21 13:10 -2.89895 112.66611 34838 ft 452 kts 69°
2026-04-21 13:11 -2.87568 112.72495 34839 ft 452 kts 69°
2026-04-21 13:11 -2.85245 112.78371 34838 ft 452 kts 69°
2026-04-21 13:12 -2.82935 112.84213 34836 ft 452 kts 69°
2026-04-21 13:12 -2.80624 112.90054 34834 ft 452 kts 69°
2026-04-21 13:13 -2.78320 112.95875 34834 ft 452 kts 69°
2026-04-21 13:13 -2.76002 113.01733 34836 ft 453 kts 69°
2026-04-21 13:14 -2.73695 113.07564 34832 ft 453 kts 69°
2026-04-21 13:14 -2.71374 113.13429 34833 ft 454 kts 69°
2026-04-21 13:15 -2.69057 113.19285 34837 ft 454 kts 69°
2026-04-21 13:15 -2.66724 113.25176 34834 ft 453 kts 69°
2026-04-21 13:16 -2.64416 113.31008 34835 ft 453 kts 69°
2026-04-21 13:16 -2.62073 113.36824 34836 ft 453 kts 66°
2026-04-21 13:17 -2.59260 113.42448 34838 ft 454 kts 60°
2026-04-21 13:17 -2.55901 113.47796 34837 ft 454 kts 57°
2026-04-21 13:18 -2.52421 113.53082 34838 ft 455 kts 57°
2026-04-21 13:18 -2.48944 113.58363 34840 ft 454 kts 57°
2026-04-21 13:19 -2.45486 113.63620 34837 ft 454 kts 57°
2026-04-21 13:19 -2.41998 113.68926 34840 ft 454 kts 57°
2026-04-21 13:20 -2.38522 113.74217 34841 ft 455 kts 57°
2026-04-21 13:20 -2.35046 113.79507 34839 ft 455 kts 57°
2026-04-21 13:21 -2.31582 113.84791 34841 ft 455 kts 57°
2026-04-21 13:21 -2.28103 113.90087 34845 ft 455 kts 57°
2026-04-21 13:22 -2.24816 113.95509 34846 ft 455 kts 62°
2026-04-21 13:22 -2.22105 114.01196 34856 ft 454 kts 66°
2026-04-21 13:23 -2.19579 114.06969 34857 ft 455 kts 67°
2026-04-21 13:23 -2.17041 114.12768 34855 ft 456 kts 67°
2026-04-21 13:24 -2.14488 114.18591 34857 ft 456 kts 66°
2026-04-21 13:24 -2.11951 114.24372 34856 ft 456 kts 66°
2026-04-21 13:25 -2.09409 114.30160 34857 ft 456 kts 66°
2026-04-21 13:25 -2.06861 114.35959 34854 ft 455 kts 66°
2026-04-21 13:26 -2.04311 114.41768 34851 ft 456 kts 66°
2026-04-21 13:26 -2.01769 114.47556 34854 ft 456 kts 66°
2026-04-21 13:27 -1.99219 114.53361 34854 ft 456 kts 66°
2026-04-21 13:27 -1.96656 114.59195 34851 ft 457 kts 66°
2026-04-21 13:28 -1.94100 114.65012 34847 ft 457 kts 66°
2026-04-21 13:28 -1.91543 114.70829 34841 ft 457 kts 66°
2026-04-21 13:29 -1.88997 114.76619 34838 ft 457 kts 66°
2026-04-21 13:29 -1.86422 114.82476 34838 ft 457 kts 66°
2026-04-21 13:30 -1.83871 114.88277 34836 ft 458 kts 66°
2026-04-21 13:30 -1.81301 114.94122 34837 ft 457 kts 66°
2026-04-21 13:31 -1.78744 114.99936 34838 ft 458 kts 66°
2026-04-21 13:31 -1.76199 115.05724 34841 ft 458 kts 66°
2026-04-21 13:32 -1.73639 115.11543 34845 ft 457 kts 66°
2026-04-21 13:32 -1.72366 115.14435 34690 ft 452 kts 66°
2026-04-21 13:32 -1.71096 115.17320 34085 ft 450 kts 66°
2026-04-21 13:33 -1.69839 115.20175 33294 ft 450 kts 66°
2026-04-21 13:33 -1.68641 115.23042 32492 ft 450 kts 69°
2026-04-21 13:33 -1.67578 115.25968 31679 ft 451 kts 71°
2026-04-21 13:33 -1.66548 115.28928 30888 ft 452 kts 71°
2026-04-21 13:34 -1.65536 115.31855 30386 ft 445 kts 71°
2026-04-21 13:34 -1.64539 115.34734 29920 ft 438 kts 71°
2026-04-21 13:34 -1.63542 115.37609 29401 ft 432 kts 71°
2026-04-21 13:34 -1.62570 115.40410 28856 ft 428 kts 71°
2026-04-21 13:35 -1.61597 115.43208 28296 ft 424 kts 71°
2026-04-21 13:35 -1.60644 115.45944 27738 ft 420 kts 71°
2026-04-21 13:35 -1.59688 115.48689 27156 ft 416 kts 71°
2026-04-21 13:35 -1.58745 115.51397 26579 ft 413 kts 71°
2026-04-21 13:36 -1.57804 115.54100 25997 ft 409 kts 71°
2026-04-21 13:36 -1.56879 115.56759 25436 ft 406 kts 72°
2026-04-21 13:36 -1.55962 115.59396 24877 ft 402 kts 72°
2026-04-21 13:36 -1.55049 115.62020 24310 ft 399 kts 72°
2026-04-21 13:37 -1.54132 115.64655 23740 ft 396 kts 72°
2026-04-21 13:37 -1.53226 115.67259 23207 ft 393 kts 73°
2026-04-21 13:37 -1.52333 115.69824 22675 ft 390 kts 73°
2026-04-21 13:37 -1.51456 115.72344 22158 ft 387 kts 73°
2026-04-21 13:38 -1.50577 115.74876 21642 ft 385 kts 73°
2026-04-21 13:38 -1.49700 115.77405 21113 ft 382 kts 73°
2026-04-21 13:38 -1.48837 115.79890 20607 ft 380 kts 73°
2026-04-21 13:38 -1.47975 115.82376 20106 ft 378 kts 72°
2026-04-21 13:39 -1.47113 115.84856 19603 ft 376 kts 72°
2026-04-21 13:39 -1.46265 115.87292 19115 ft 373 kts 72°
2026-04-21 13:39 -1.45423 115.89713 18640 ft 371 kts 72°
2026-04-21 13:39 -1.44577 115.92143 18157 ft 368 kts 72°
2026-04-21 13:40 -1.43732 115.94567 17680 ft 366 kts 72°
2026-04-21 13:40 -1.42907 115.96938 17191 ft 361 kts 72°
2026-04-21 13:40 -1.41813 116.00076 16523 ft 360 kts 71°
2026-04-21 13:40 -1.41269 116.01636 16199 ft 357 kts 71°
2026-04-21 13:41 -1.40449 116.03987 15699 ft 356 kts 71°
2026-04-21 13:41 -1.39642 116.06301 15396 ft 350 kts 72°
2026-04-21 13:41 -1.38853 116.08567 15143 ft 342 kts 72°
2026-04-21 13:41 -1.38088 116.10769 14895 ft 339 kts 72°
2026-04-21 13:42 -1.37316 116.12995 14636 ft 338 kts 72°
2026-04-21 13:42 -1.36555 116.15223 14378 ft 337 kts 72°
2026-04-21 13:42 -1.35801 116.17436 14121 ft 335 kts 72°
2026-04-21 13:42 -1.35057 116.19617 13866 ft 334 kts 72°
2026-04-21 13:43 -1.34309 116.21811 13611 ft 333 kts 72°
2026-04-21 13:43 -1.33561 116.24000 13352 ft 330 kts 72°
2026-04-21 13:43 -1.32834 116.26128 13087 ft 321 kts 72°
2026-04-21 13:43 -1.32115 116.28229 12829 ft 310 kts 71°
2026-04-21 13:44 -1.31416 116.30209 12469 ft 300 kts 71°
2026-04-21 13:44 -1.30722 116.32158 11989 ft 301 kts 71°
2026-04-21 13:44 -1.30018 116.34139 11595 ft 299 kts 71°
2026-04-21 13:44 -1.29331 116.36071 11234 ft 296 kts 71°
2026-04-21 13:45 -1.28647 116.37999 10848 ft 294 kts 70°
2026-04-21 13:45 -1.27981 116.39938 10454 ft 293 kts 75°
2026-04-21 13:45 -1.27869 116.41941 10039 ft 293 kts 100°
2026-04-21 13:45 -1.28636 116.43809 9672 ft 292 kts 124°
2026-04-21 13:46 -1.30084 116.45199 9392 ft 294 kts 148°
2026-04-21 13:46 -1.31917 116.46082 9109 ft 294 kts 155°
2026-04-21 13:46 -1.33804 116.46895 8813 ft 293 kts 155°
2026-04-21 13:46 -1.35673 116.47707 8580 ft 292 kts 155°
2026-04-21 13:47 -1.37548 116.48535 8366 ft 289 kts 155°
2026-04-21 13:47 -1.39372 116.49348 8150 ft 285 kts 155°
2026-04-21 13:47 -1.41197 116.50132 7925 ft 281 kts 157°
2026-04-21 13:47 -1.42989 116.50884 7646 ft 277 kts 157°
2026-04-21 13:48 -1.44757 116.51623 7322 ft 275 kts 157°
2026-04-21 13:48 -1.46527 116.52364 6996 ft 274 kts 157°
2026-04-21 13:48 -1.48297 116.53110 6667 ft 272 kts 156°
2026-04-21 13:48 -1.49866 116.54132 6284 ft 272 kts 132°
2026-04-21 13:49 -1.50855 116.55750 5951 ft 272 kts 107°
2026-04-21 13:49 -1.51080 116.57599 5645 ft 271 kts 83°
2026-04-21 13:49 -1.50588 116.59386 5375 ft 269 kts 68°
2026-04-21 13:49 -1.49887 116.61134 5162 ft 269 kts 66°
2026-04-21 13:50 -1.49185 116.62869 4971 ft 268 kts 67°
2026-04-21 13:50 -1.48499 116.64603 4778 ft 268 kts 68°
2026-04-21 13:50 -1.47822 116.66351 4585 ft 267 kts 68°
2026-04-21 13:50 -1.47158 116.68081 4392 ft 266 kts 68°
2026-04-21 13:51 -1.46495 116.69817 4199 ft 265 kts 68°
2026-04-21 13:51 -1.45852 116.71494 4001 ft 255 kts 68°
2026-04-21 13:51 -1.45062 116.73024 3791 ft 244 kts 47°
2026-04-21 13:51 -1.43710 116.73965 3595 ft 236 kts 19°
2026-04-21 13:52 -1.42098 116.74171 3401 ft 231 kts 353°
2026-04-21 13:52 -1.40562 116.73708 3226 ft 231 kts 339°
2026-04-21 13:52 -1.39088 116.73083 3059 ft 230 kts 338°
2026-04-21 13:52 -1.37595 116.72443 2894 ft 230 kts 338°
2026-04-21 13:53 -1.36127 116.71903 2720 ft 223 kts 353°
2026-04-21 13:53 -1.34660 116.72156 2539 ft 215 kts 36°
2026-04-21 13:53 -1.33743 116.73300 2390 ft 210 kts 65°
2026-04-21 13:53 -1.33202 116.74651 2225 ft 205 kts 68°
2026-04-21 13:54 -1.32680 116.75934 2077 ft 197 kts 65°
2026-04-21 13:54 -1.32132 116.77143 2054 ft 182 kts 63°
2026-04-21 13:54 -1.31613 116.78216 2026 ft 165 kts 63°
2026-04-21 13:54 -1.31142 116.79231 1848 ft 153 kts 66°
2026-04-21 13:55 -1.30739 116.80200 1685 ft 150 kts 66°
2026-04-21 13:55 -1.30340 116.81162 1521 ft 151 kts 66°
2026-04-21 13:55 -1.29937 116.82128 1326 ft 150 kts 65°
2026-04-21 13:55 -1.29533 116.83089 1129 ft 148 kts 65°
2026-04-21 13:56 -1.29141 116.84016 935 ft 140 kts 65°
2026-04-21 13:56 -1.28766 116.84905 750 ft 136 kts 65°
2026-04-21 13:56 -1.28399 116.85770 588 ft 136 kts 65°
2026-04-21 13:56 -1.28035 116.86642 418 ft 135 kts 66°
2026-04-21 13:57 -1.27669 116.87513 261 ft 135 kts 64°
2026-04-21 13:57 -1.27297 116.88367 100 ft 134 kts 65°
2026-04-21 13:57 -1.26935 116.89198 22 ft 120 kts 66°
2026-04-21 13:57 -1.26736 116.89692 21 ft 33 kts 69°
2026-04-21 13:58 -1.26680 116.89817 21 ft 18 kts 67°
2026-04-21 13:58 -1.26625 116.89944 21 ft 21 kts 67°
2026-04-21 13:58 -1.26567 116.90076 21 ft 14 kts 64°
2026-04-21 13:58 -1.26494 116.90112 21 ft 13 kts 346°
2026-04-21 13:59 -1.26409 116.90080 21 ft 13 kts 336°
2026-04-21 13:59 -1.26330 116.90055 21 ft 10 kts
2026-04-21 13:59 -1.26288 116.90099 21 ft 5 kts 65°
2026-04-21 13:59 -1.26255 116.90104 21 ft 6 kts 334°
2026-04-21 14:00 -1.26215 116.90087 21 ft 1 kts 337°
2026-04-21 14:00 -1.26209 116.90084 21 ft 0 kts 336°